"Pseudo-MPEC" for P117N4F

Created 2020 Oct 19 18:07:18 UT using Find_Orb

Click here for an explanation of pseudo-MPECs

 
 Astrometry: 
     P117N4F  C2020 10 14ca^WUH.NT(KE)Astrometry,$r!EW;ePcL@^`UOI4'q,OYZ]+)ykF51
     P117N4F  C2020 10 14aqF,ObL%5,^tlredacted;m#/7wclickZwL:X0V=mU/TLU;Uqg5iF51
     P117N4F  C2020 10 14VAN*heregAfor.]+yZ?wa3UKCrRexplanation[L%kA4b.IR?DZIF51

Station data:
(F51) Pan-STARRS 1, Haleakala  (N20.707235 W156.255910)  US/Hawaii.
   Observers N. Primak, A. Schultz, S. Watters, J. Thiel, T. Goggia. Measurer
   PS1 Science Consortium. 1.8-m Ritchey-Chrétien + CCD.

Orbital elements:  P117N4F
   Perihelion 2020 Aug 24.558417 +/- 35.3 TT = 13:24:07 (JD 2459086.058417)
Epoch 2020 Oct 14.0 TT = JDT 2459136.5   Earth MOID: 0.0052   AutoNEOCP
M  46.26987435 +/- 22               (J2000 ecliptic)
n   0.91729623 +/- 0.425            Peri.  305.31990 +/- 59
a   1.04905028 +/- 0.324            Node    23.35118 +/- 47
e   0.0660491 +/- 0.258             Incl.    2.56471 +/- 9
P   1.07/392.45d           H 30.0   G  0.15   U 12.2  SR
q 0.97976145 +/- 0.19    Q 1.11833912 +/- 33.3
From 3 observations 2020 Oct. 14 (32.1 min); mean residual 0".17
Residuals in arcseconds: 
201014 F51  .15-  .08+    201014 F51  .30+  .16-    201014 F51  .15-  .08+    

Ephemerides (geocentric):
Date (UTC) HH   RA              Dec         delta   r     elong  mag " sig PA
---- -- -- --  -------------   -----------  ------ ------ -----  --- ---- ---
2020 10 19 18  00 58 21.654   +18 02 28.90  .01319 1.0087 167.5 21.4  60d   9
2020 10 19 19  00 58 23.012   +18 09 05.03  .01324 1.0088 167.5 21.4  61d   9
2020 10 19 20  00 58 24.367   +18 15 37.90  .01330 1.0088 167.4 21.4  61d   9
2020 10 19 21  00 58 25.719   +18 22 07.56  .01335 1.0088 167.3 21.4  61d   9
2020 10 19 22  00 58 27.068   +18 28 34.04  .01341 1.0089 167.2 21.4  61d   9
2020 10 19 23  00 58 28.414   +18 34 57.38  .01346 1.0089 167.1 21.4  61d   9
2020 10 20 00  00 58 29.757   +18 41 17.61  .01351 1.0090 167.1 21.5  61d   9
2020 10 20 01  00 58 31.097   +18 47 34.77  .01357 1.0090 167.0 21.5  61d   9
2020 10 20 02  00 58 32.435   +18 53 48.88  .01362 1.0090 166.9 21.5  61d   9
2020 10 20 03  00 58 33.770   +18 59 59.99  .01368 1.0091 166.8 21.5  61d   9
2020 10 20 04  00 58 35.103   +19 06 08.12  .01373 1.0091 166.7 21.5  61d   9
2020 10 20 05  00 58 36.433   +19 12 13.31  .01379 1.0091 166.7 21.5  61d   9
2020 10 20 06  00 58 37.761   +19 18 15.59  .01384 1.0092 166.6 21.5  61d   9
2020 10 20 07  00 58 39.087   +19 24 14.98  .01389 1.0092 166.5 21.5  61d   9
2020 10 20 08  00 58 40.410   +19 30 11.53  .01395 1.0093 166.4 21.6  61d   9
2020 10 20 09  00 58 41.731   +19 36 05.26  .01400 1.0093 166.3 21.6  61d   9
2020 10 20 10  00 58 43.049   +19 41 56.20  .01406 1.0093 166.3 21.6  61d   9
2020 10 20 11  00 58 44.366   +19 47 44.38  .01411 1.0094 166.2 21.6  61d   9
2020 10 20 12  00 58 45.681   +19 53 29.83  .01417 1.0094 166.1 21.6  61d   9
2020 10 20 13  00 58 46.993   +19 59 12.57  .01422 1.0094 166.0 21.6  61d   9
2020 10 20 14  00 58 48.304   +20 04 52.65  .01428 1.0095 166.0 21.6  61d   9
2020 10 20 15  00 58 49.612   +20 10 30.08  .01433 1.0095 165.9 21.6  61d   9
2020 10 20 16  00 58 50.919   +20 16 04.89  .01439 1.0096 165.8 21.6  62d   9
2020 10 20 17  00 58 52.224   +20 21 37.12  .01444 1.0096 165.7 21.7  62d   9
2020 10 20 18  00 58 53.527   +20 27 06.78  .01450 1.0096 165.7 21.7  62d   9
2020 10 20 19  00 58 54.829   +20 32 33.90  .01455 1.0097 165.6 21.7  62d   9
2020 10 20 20  00 58 56.129   +20 37 58.52  .01461 1.0097 165.5 21.7  62d   9
2020 10 20 21  00 58 57.427   +20 43 20.65  .01466 1.0097 165.4 21.7  62d   9
2020 10 20 22  00 58 58.724   +20 48 40.33  .01472 1.0098 165.4 21.7  62d   9
2020 10 20 23  00 59 00.019   +20 53 57.57  .01477 1.0098 165.3 21.7  62d   9
2020 10 21 00  00 59 01.312   +20 59 12.40  .01483 1.0098 165.2 21.7  62d   9
2020 10 21 01  00 59 02.605   +21 04 24.85  .01488 1.0099 165.1 21.7  62d   9
2020 10 21 02  00 59 03.896   +21 09 34.95  .01494 1.0099 165.1 21.8  62d   9
2020 10 21 03  00 59 05.185   +21 14 42.70  .01500 1.0100 165.0 21.8  62d   9
2020 10 21 04  00 59 06.473   +21 19 48.15  .01505 1.0100 164.9 21.8  62d   9
2020 10 21 05  00 59 07.760   +21 24 51.31  .01511 1.0100 164.9 21.8  62d   9
2020 10 21 06  00 59 09.046   +21 29 52.21  .01516 1.0101 164.8 21.8  62d   9
2020 10 21 07  00 59 10.330   +21 34 50.86  .01522 1.0101 164.7 21.8  62d   9
2020 10 21 08  00 59 11.614   +21 39 47.30  .01527 1.0101 164.7 21.8  62d   9
2020 10 21 09  00 59 12.896   +21 44 41.54  .01533 1.0102 164.6 21.8  62d   9
2020 10 21 10  00 59 14.177   +21 49 33.60  .01539 1.0102 164.5 21.8  62d   9
2020 10 21 11  00 59 15.457   +21 54 23.52  .01544 1.0103 164.5 21.8  62d   9
2020 10 21 12  00 59 16.736   +21 59 11.30  .01550 1.0103 164.4 21.9  62d   9
2020 10 21 13  00 59 18.014   +22 03 56.97  .01555 1.0103 164.3 21.9  62d   9
2020 10 21 14  00 59 19.292   +22 08 40.55  .01561 1.0104 164.3 21.9  62d   9
2020 10 21 15  00 59 20.568   +22 13 22.06  .01566 1.0104 164.2 21.9  62d   9
2020 10 21 16  00 59 21.843   +22 18 01.52  .01572 1.0104 164.1 21.9  62d   9
2020 10 21 17  00 59 23.118   +22 22 38.96  .01578 1.0105 164.1 21.9  62d   9